Regional Weather Roundup
Issued by NWS Goodland, KS

Home | Current Version | Previous Version | Graphics & Text | Print | Product List | Glossary On
Versions: 1 2 3 4 5 6 7 8 9 10 11 12 13 14 15 16 17 18 19 20 21 22 23 24 25 26 27 28 29 30 31 32 33 34 35 36 37 38 39 40 41 42 43 44 45 46 47 48 49 50
000
ASUS43 KGLD 261108
RWRGLD

GOODLAND FORECAST AREA HOURLY WEATHER ROUNDUP
NATIONAL WEATHER SERVICE GOODLAND KS
500 AM MDT SUN APR 26 2015

...OFFICIAL OBSERVATIONS...

CITY           SKY/WX    TMP DP  RH WIND       PRES   REMARKS
GOODLAND KS    CLOUDY    44  43  96 E17       29.84R FOG
HILL CITY KS   CLOUDY    46  44  93 E12       29.89R FOG
IMPERIAL NEB   CLOUDY    45  43  93 SE15      29.86S FOG
MCCOOK NEB     CLOUDY    46  44  93 NE12      29.88R FOG
AKRON CO       FOG       44  44 100 E13       29.81S VSB 1
BURLINGTON CO  CLOUDY    44  43  96 NE16      29.81S FOG
LIMON CO       CLOUDY    45  44  97 E21       29.79S
$$

...UNOFFICIAL OBSERVATIONS...

CITY           SKY/WX    TMP DP  RH WIND       PRES   REMARKS
GOVE KS          N/A     48  32  54 MISG        N/A
LENORA KS        N/A     44  32  63 MISG        N/A
SHARON SPRINGS   N/A     45  44  96 N15         N/A
TRIBUNE KS     CLOUDY    46  46 100 E16G22    29.81R VSB 3/4
KIT CARSON CO    N/A     45  43  92 MISG        N/A
YUMA CO          N/A     50  50  99 E12         N/A
$$



USA.gov is the U.S. government's official web portal to all federal, state and local government web resources and services.